Home > Weather > Würzburg > Past weeks

Flag for Germany Past Weather in Würzburg, Bavaria, Germany — Yesterday and Last 2 Weeks

Now
75 °F

Passing clouds.


Feels Like: 78 °F
Forecast: 52 / 69 °F
Wind: 10 mph from Southwest

Location: Niederstetten

Current Time: Jul 1, 2016 at 5:26:43 PM

Latest Report: Jul 1, 2016 at 4:20 PM


Visibility: N/A

Pressure: 30.04 "Hg

Humidity: 50%

Dew Point: 55 °F

Location of WürzburgLocation

Past Weather in Würzburg — Graph

°F

Würzburg Temperature Yesterday

Maximum temperature yesterday: 72 °F (at 4:20 PM)
Minimum temperature yesterday: 57 °F (at 1:20 AM)
Average temperature yesterday: 65 °F

High & Low Weather Summary for the Past Weeks

 TemperatureHumidityPressure
High88 °F (Jun 23, 5:00 PM)100% (Jun 16, 9:20 PM)30.27 "Hg (Jun 16, 9:20 PM)
Low46 °F (Jun 20, 3:20 AM)40% (Jun 24, 5:20 PM)29.62 "Hg (Jun 16, 10:20 PM)
Average64 °F75%30.07 "Hg
* Reported Jun 16 3:20 PM — Jul 1 3:20 PM, Würzburg, Weather by CustomWeather, © 2016

Note: Actual official high and low records may vary slightly from our data, if they occured in-between our weather recording intervals... More about our weather records

Advertising

Würzburg Weather History for the Previous 24 Hours

Scroll right to see more
 ConditionsComfort  
Time TempWeatherWind HumidityBarometerVisibility
3:20 PM
Fri, Jul 1
75 °FPassing clouds.12 mph50%30.04 "HgN/A
2:20 PM72 °FPassing clouds.10 mph57%30.07 "HgN/A
1:20 PM72 °FScattered clouds.12 mph57%30.07 "HgN/A
12:20 PM70 °FScattered clouds.10 mph60%30.09 "HgN/A
11:20 AM70 °FScattered clouds.10 mph60%30.07 "HgN/A
10:20 AM68 °FPassing clouds.9 mph69%30.07 "HgN/A
9:20 AM66 °FPartly sunny.10 mph73%30.07 "HgN/A
8:20 AM66 °FBroken clouds.6 mph78%30.07 "HgN/A
7:20 AM63 °FPartly sunny.3 mph83%30.07 "HgN/A
6:20 AM61 °FBroken clouds.6 mph88%30.07 "HgN/A
5:20 AM61 °FPartly cloudy.5 mph83%30.07 "HgN/A
4:20 AM59 °FPassing clouds.5 mph88%30.04 "HgN/A
3:20 AM59 °FPassing clouds.6 mph88%30.04 "HgN/A
2:20 AM59 °FPassing clouds.5 mph88%30.07 "HgN/A
1:20 AM61 °FPassing clouds.6 mph83%30.07 "HgN/A
12:20 AM63 °FPassing clouds.2 mph83%30.07 "HgN/A
11:20 PM
Thu, Jun 30
64 °FPartly cloudy.3 mph78%30.07 "HgN/A
10:20 PM66 °FPartly sunny.2 mph73%30.04 "HgN/A
9:20 PM68 °FPartly sunny.2 mph69%30.04 "HgN/A
8:20 PM70 °FPartly sunny.6 mph60%30.01 "HgN/A
7:20 PM70 °FBroken clouds.3 mph64%30.01 "HgN/A
6:20 PM72 °FPartly sunny.8 mph57%30.01 "HgN/A
5:20 PM72 °FBroken clouds.7 mph57%30.01 "HgN/A
5:00 PM72 °FBroken clouds.8 mph57%30.01 "HgN/A
Weather by CustomWeather, © 2016

See weather overviewHow to use our weather pages